METEOR 2-6 DEB, 31406

Orbit data source: Space-Track

METEOR 2-6 DEB, 31406 is space debris in LEO originally from a launch on Tue, 09 Sep 1980 UTC launched from the Plesetsk Missile And Space Complex (PKMTR). Debris objects in space refer to the collection of defunct objects orbiting the Earth. Examples of debris include non-operational satellites, rocket bodies, and fragments generated from explosions, collisions, or faulty payload assembly.

Loading next visibility...
Identifier
31406, 1980-073H
Orbit
LEO
Country
Flag of CISCIS
Related business
Manufacturer
Unknown
Mission
Spacecraft
Bus & Motor
Unknown
Mass
Unknown
Launch date (UTC)
1980-09-09 (45 years ago)
Launch vehicle
Unknown
Launch site
Plesetsk Missile And Space Complex (PKMTR)
Object type
Payload
Rocket body
Debris
Shape & HBR
Unknown shape, 0.1 m
Radar Cross Section
Small (<0.1 m²)

Expand to show TLE details & history
Last TLE update: 2 days ago

TLE from 2 days ago
0 METEOR 2-6 DEB
1 31406U 80073H   25299.46425067  .00007373  00000-0  20735-2 0  9992
2 31406  81.2178 201.8653 0036468 126.7049 233.7501 14.45422252 73927
Epoch: 2025-10-26T11:08Z
TLE epoch observation values (Epoch: 2025-10-26T11:08:31.257Z)
Latitude
-0.00006°
Longitude
-0.34502°
Altitude
759.002 km
Speed
7.467 km/s
True Right ascension
13h 27m 27s
True Declination
0° 00' 00"
Sunlit
Object was in daylight at epoch
Visualization orbit readout
Latitude
Unknown
Longitude
Unknown
Altitude
Unknown
Speed
Unknown
Apparent Right ascension
Unknown
Apparent Declination
Unknown
Sunlit
N/A
Visualization observer readout
Local Sidereal Time
20:05:17
Azimuth
Unknown
Elevation
Unknown
Doppler factor
Unknown
Orbital elements
Apogee altitude
763.718 km
Perigee altitude
711.817 km
Semi-major axis
7,115.905 km
Eccentricity
0.00365
Inclination
81.2178°
RAAN
201.8653°
Arg. of periapsis
126.7049°
True anomaly
233.414°
Mean anomaly
233.7501°
Eccentric anomaly
233.58196°
Mean motion
3.61575 °/min
Orbital period
99.56 mins
BSTAR
0.0020735
Loading maneuver chart data...
Computing Atmospheric mass density...
Loading historical data...
Loading historical data...
Loading historical data...
Loading historical data...
Loading historical data...
Loading historical data...
Loading historical data...

Documentation

Showing up to 5 results
|